Regional Weather Roundup
Issued by NWS

Home | Current Version | Previous Version | Text Only | Print | Product List | Glossary Off
Versions: 1 2 3 4 5 6 7 8 9 10 11 12 13 14 15 16 17 18 19 20 21 22 23 24 25 26 27 28 29 30 31 32 33 34 35 36 37 38 39 40 41 42 43 44 45 46 47 48 49 50

000
ASUS43 KLMK 281602
RWRKY
KENTUCKY REGIONAL WEATHER ROUNDUP
NATIONAL WEATHER SERVICE LOUISVILLE KY
1100 AM EST WED JAN 28 2015

NOTE "FAIR" INDICATES FEW OR NO CLOUDS BELOW 12,000 FEET
WITH NO SIGNIFICANT WEATHER AND/OR OBSTRUCTIONS TO VISIBILITY.

KYZ001>023-026-027-061>063-070>075-281700-
WESTERN AND SOUTH CENTRAL KENTUCKY

CITY           SKY/WX    TMP DP  RH WIND       PRES   REMARKS
PADUCAH        MOSUNNY   36  29  75 SE9       30.30S WCI  29
HENDERSON      SUNNY     34  21  60 SE10G16   30.33F WCI  26
OWENSBORO      SUNNY     33  19  56 S9        30.37R WCI  25
HOPKINSVILLE   SUNNY     36  24  63 E14       30.32F WCI  27
BOWLING GREEN  SUNNY     34  18  52 E9        30.37S WCI  27
GLASGOW        NOT AVBL
$$

KYZ024-025-028>034-038-045-046-053-281700-
NORTH CENTRAL KENTUCKY

CITY           SKY/WX    TMP DP  RH WIND       PRES   REMARKS
LOUISVILLE/SDF MOSUNNY   29  14  53 SE10      30.37F WCI  20
LOUISVILLE/LOU SUNNY     28  14  55 SE7       30.38F WCI  21
FORT KNOX      SUNNY     27  16  62 E9        30.35R WCI  18
$$

KYZ035>037-039>044-047>052-055>060-089>105-281700-
NORTHEAST KENTUCKY

CITY           SKY/WX    TMP DP  RH WIND       PRES   REMARKS
LEXINGTON      SUNNY     26  14  60 SE7       30.38S WCI  18
COVINGTON      MOSUNNY   26  15  63 S5        30.37S WCI  20
FRANKFORT      SUNNY     27  15  61 SE10      30.37F WCI  17
$$

KYZ054-064>069-076>088-106>120-281700-
SOUTHEAST KENTUCKY

CITY           SKY/WX    TMP DP  RH WIND       PRES   REMARKS
JACKSON        SUNNY     24  14  65 CALM      30.35R
LONDON         SUNNY     27  14  58 SE3       30.36R
SOMERSET       NOT AVBL
MIDDLESBORO    NOT AVBL
MONTICELLO     SUNNY     29  16  58 SE6       30.40R WCI  23
$$



USA.gov is the U.S. government's official web portal to all federal, state and local government web resources and services.